Starlink 2117

operational
NORAD ID: 47395 Int'l Des: 2021-005 Owner: SPXS Country: US Constellation: starlink
LEOCIRCULARSTARLINK_TYPE

About Starlink 2117

Description loading...

Live Position

Loading 3D Globe...

Upcoming Passes

Altitude History

Altitude vs Time

uPlot chart will show altitude changes over time

Two-Line Element Set

1 47395U 21005AY 26020.00003472 .00809703 31748-3 15284-2 0 9997
2 47395 53.0422 207.0400 0004414 224.4461 245.7716 16.00251474 5990
Epoch: Jan 20, 2026 • Age: 18 hours

Current Status

Altitude 272.8 km
Velocity 7.74 km/s
Sub-Earth Point 14.64°N, 169.57°W
Launch Date Jan 20, 2021
Age 4.9 years
Type internet

Technical Details

Classification Payload
Mass 260.00 kg
Dry Mass 248.00 kg
Total Mass 260.00 kg
Length 0.20 m
Diameter 2.80 m
Span 9.00 m
Shape Box + pan
Manufacturer SPXS
Bus Type Starlink
Phase Status In Orbit
Owner/State SPXS/US

Large Constellations

Loading constellations...